• Processing (Info)

  • MPEC 2014-F34 : 2014 FD7

    The following Minor Planet Electronic Circular may be linked-to from your own Web pages, but must not otherwise be redistributed electronically.

    A form allowing access to any MPEC is at the bottom of this page.


    Read MPEC 2014-F33 Read MPEC 2014-F35


    M.P.E.C. 2014-F34                                Issued 2014 Mar. 24, 22:06 UT
    
         The Minor Planet Electronic Circulars contain information on unusual
             minor planets and routine data on comets.  They are published
       on behalf of Commission 20 of the International Astronomical Union by the
              Minor Planet Center, Smithsonian Astrophysical Observatory,
                              Cambridge, MA 02138, U.S.A.
    
                 Prepared using the Tamkin Foundation Computer Network
    
                                  MPC@CFA.HARVARD.EDU
                URL https://www.minorplanetcenter.net/    ISSN 1523-6714
    
                                       2014 FD7
    
    Observations:
         K14F07D* C2014 03 23.27174 10 57 34.70 -04 39 22.0          20.7 VqEF034703
         K14F07D  C2014 03 23.28018 10 57 34.26 -04 38 49.8          19.1 VqEF034703
         K14F07D  C2014 03 23.28865 10 57 33.86 -04 38 19.0          19.5 VqEF034703
         K14F07D  C2014 03 23.29707 10 57 33.43 -04 37 47.0          20.0 VqEF034703
         K14F07D  C2014 03 23.34723 10 57 30.79 -04 34 41.1          19.8 VqEF034703
         K14F07D  C2014 03 23.35959 10 57 30.17 -04 33 54.9          19.5 VqEF034703
         K14F07D  C2014 03 23.37155 10 57 29.52 -04 33 10.7          20.6 VqEF034703
         K14F07D  C2014 03 23.38113 10 57 29.02 -04 32 34.8          20.5 VqEF034703
         K14F07D KC2014 03 23.86282 10 57 11.78 -04 02 51.3          19.9 VqEF034958
         K14F07D KC2014 03 23.87689 10 57 11.01 -04 02 00.1          20.2 VqEF034958
         K14F07D KC2014 03 23.88324 10 57 10.71 -04 01 36.0          19.7 VqEF034958
         K14F07D KC2014 03 23.88824910 57 10.47 -04 01 18.6          19.8 VqEF034I93
         K14F07D KC2014 03 23.89742610 57 10.02 -04 00 44.7          20.0 VqEF034I93
         K14F07D KC2014 03 23.91168210 57 09.38 -03 59 52.2          19.7 VqEF034I93
         K14F07D |C2014 03 24.07852 10 57 03.17 -03 48 53.2          19.9 VuEF034807
         K14F07D |C2014 03 24.08326 10 57 02.93 -03 48 35.6          20.0 VuEF034807
         K14F07D |C2014 03 24.08822 10 57 02.69 -03 48 17.3          19.9 VuEF034807
         K14F07D KC2014 03 24.24083 10 56 55.78 -03 39 29.0          19.7 RqEF034H36
         K14F07D KC2014 03 24.24704 10 56 55.46 -03 39 05.4          19.9 RqEF034H36
         K14F07D KC2014 03 24.25248 10 56 55.21 -03 38 44.9          19.5 RqEF034H36
    
    Observer details:
    703 Catalina Sky Survey.  Observer J. A. Johnson.  Measurers E. J. Christensen,
        A. R. Gibbs, A. D. Grauer, R. E. Hill, J. A. Johnson, R. A. Kowalski,
        S. M. Larson, F. C. Shelly.  0.68-m Schmidt + CCD.
    807 Cerro Tololo.  Observers T. Linder, R. Holmes.  Measurers T. Linder,
        R. Holmes, K. Baker.  0.41-m f/11 Ritchey-Chretien + CCD.
    958 Observatoire de Dax.  Observers P. Dupouy, J. B. de Vanssay.  Measurer
        P. Dupouy.  0.43-m f/2.7 reflector + CCD.
    H36 Sandlot Observatory, Scranton.  Observer G. Hug.  0.56-m reflector + CCD.
    I93 St Pardon de Conques.  Observer F. Losse.  0.40-m f/3.7 reflector + CCD.
    
    Orbital elements:
    2014 FD7                                                 Earth MOID = 0.1411 AU
    Epoch 2014 May 23.0 TT = JDT 2456800.5                  MPC
    M 247.34598              (2000.0)            P               Q
    n   0.75255237     Peri.  152.01598     +0.93325042     +0.35764118
    a   1.1970480      Node   187.27596     -0.35870300     +0.92271369
    e   0.0490488      Incl.   15.43699     -0.01938583     +0.14384793
    P   1.31           H   21.5           G   0.15           U   8
    Residuals in seconds of arc
    140323 703  0.4-  0.4-    140323 703  0.6-  0.0     140324 807  0.0   0.1+
    140323 703  0.3-  0.4+    140323 958  0.4+  0.8+    140324 807  0.0   0.1+
    140323 703  0.5+  0.2-    140323 958  0.9-  0.1-    140324 807  0.2+  0.1+
    140323 703  0.7+  0.5+    140323 958  0.8-  0.5+    140324 H36  0.2+  0.5-
    140323 703  0.3+  0.1-    140323 I93  0.3-  0.3-    140324 H36  0.0   0.1+
    140323 703  0.4+  0.1+    140323 I93  0.3-  0.5-    140324 H36  0.3+  0.4+
    140323 703  0.3-  0.2-    140323 I93  0.6+  0.8-
    
    Ephemeris:
    2014 FD7                 a,e,i = 1.20, 0.05, 15                  q = 1.1383
    Date    TT    R. A. (2000) Decl.     Delta      r     Elong.  Phase     V
    2014 02 22    11 23 06.4 -27 41 22   0.3286  1.2557   139.0    31.1    20.9
    ...
    2014 03 09    11 10 17.8 -18 23 32   0.2797  1.2548   156.9    18.1    20.2
    ...
    2014 03 17    11 02 36.3 -11 02 19   0.2673  1.2534   163.5    13.1    19.9
    ...
    2014 03 23    10 57 46.2 -04 55 53   0.2657  1.2520   162.1    14.2    19.9
    2014 03 24    10 57 05.5 -03 54 02   0.2661  1.2518   161.3    14.8    19.9
    2014 03 25    10 56 27.3 -02 52 19   0.2667  1.2515   160.4    15.5    20.0
    ...
    2014 03 31    10 53 40.3 +03 08 03   0.2740  1.2497   153.3    21.1    20.2
    ...
    2014 04 08    10 53 07.7 +10 13 41   0.2929  1.2468   142.7    29.1    20.6
    ...
    2014 04 23    11 02 01.4 +19 33 29   0.3478  1.2401   125.5    41.3    21.3
    
    A. U. Tomatic                (C) Copyright 2014 MPC           M.P.E.C. 2014-F34
    

    Read MPEC 2014-F33 Read MPEC 2014-F35


    MPEC number:

    Enter an MPEC number in one of the following forms:

    • 1997-B01 (the full form)
    • J97B01 (the packed version of the full form)
    • B01 (the abbreviated form)